Weather History for Joplin, MO

Change the Weather History Date:

Sunday, November 25, 2012

  Actual Average Record
Temperature  
Mean Temperature 11 °C 7 °C  
Max Temperature 17 °C 12 °C 25 °C (1965)
Min Temperature 4 °C 1 °C -10 °C (1950)
Degree Days  
Heating Degree Days 14 21  
Month to date heating degree days 358 393  
Since 1 July heating degree days 682 645  
Cooling Degree Days 0 0  
Month to date cooling degree days 4 5  
Year to date cooling degree days 2106 1696  
Growing Degree Days 2 (Base 50)    
Moisture  
Dew Point -2 °C    
Average Humidity 47    
Maximum Humidity 70    
Minimum Humidity 32    
Precipitation  
Precipitation 0.00 mm 3.30 mm 2.44 mm (1952)
Month to date precipitation 1.31 3.19  
Year to date precipitation 36.96 43.14  
Snow  
Snow 0.00 cm - - ()
Month to date snowfall 0.0  
Snow Depth 0.00 cm    
Sea Level Pressure  
Sea Level Pressure 1014 hPa    
Wind  
Wind Speed 13 km/h (South)    
Max Wind Speed 34 km/h    
Max Gust Speed 42 km/h    
Visibility 16 kilometers    
Events      
T = Trace of Precipitation, MM = Missing Value Source: NWS Daily Summary

Daily Weather History Graph

Daily Weather History Graph

Search for Another Location

Airport:

Trip Planner

Search our weather history database for the weather conditions in past years. The results will help you decide how hot, cold, wet, or windy it might be!

Date:

Astronomy

Nov. 25, 2012 Rise Set
Actual Time 7:07 AM CST 5:02 PM CST
Civil Twilight 6:39 AM CST 5:30 PM CST
Nautical Twilight 6:07 AM CST 6:02 PM CST
Astronomical Twilight 5:36 AM CST 6:33 PM CST
Moon 3:17 PM CST (11/25) 4:25 AM CST (11/25)
Length of Visible Light 10h 51m
Length of Day
9h 54m
Waxing Gibbous, 93% of the Moon is Illuminated
Nov 25
Waxing Gibbous
Nov 28
Full
Dec 6
Last Quarter
Dec 13
New
Dec 19
First Quarter

Hourly Weather History & Observations

Time (CST) Temp. Windchill Dew Point Humidity Pressure Visibility Wind Dir Wind Speed Gust Speed Precip Events Conditions
12:53 AM 7.2 °C 3.3 °C -6.1 °C 39% 1015.3 hPa 16.1 km SSW 25.9 km/h / 7.2 m/s - N/A   Clear
1:53 AM 6.7 °C 2.8 °C -5.6 °C 42% 1014.9 hPa 16.1 km SSW 24.1 km/h / 6.7 m/s - N/A   Clear
2:53 AM 6.1 °C 2.4 °C -5.6 °C 43% 1014.7 hPa 16.1 km South 20.4 km/h / 5.7 m/s - N/A   Clear
3:53 AM 5.6 °C 2.0 °C -5.0 °C 47% 1014.3 hPa 16.1 km South 18.5 km/h / 5.1 m/s - N/A   Clear
4:53 AM 5.0 °C 1.8 °C -5.0 °C 49% 1014.3 hPa 16.1 km South 14.8 km/h / 4.1 m/s - N/A   Clear
5:53 AM 5.0 °C 1.3 °C -5.0 °C 49% 1014.0 hPa 16.1 km South 18.5 km/h / 5.1 m/s - N/A   Clear
6:53 AM 5.6 °C 2.5 °C -5.0 °C 47% 1014.1 hPa 16.1 km South 14.8 km/h / 4.1 m/s - N/A   Clear
7:53 AM 6.7 °C 3.4 °C -4.4 °C 45% 1014.3 hPa 16.1 km SSW 18.5 km/h / 5.1 m/s - N/A   Clear
8:53 AM 8.9 °C - -3.9 °C 41% 1015.0 hPa 16.1 km SSW 14.8 km/h / 4.1 m/s - N/A   Clear
9:53 AM 10.6 °C - -3.3 °C 38% 1015.0 hPa 16.1 km SW 22.2 km/h / 6.2 m/s - N/A   Clear
10:53 AM 12.8 °C - -1.7 °C 37% 1014.7 hPa 16.1 km SW 13.0 km/h / 3.6 m/s - N/A   Clear
11:53 AM 13.9 °C - -1.1 °C 36% 1013.5 hPa 16.1 km WSW 14.8 km/h / 4.1 m/s - N/A   Clear
12:53 PM 15.0 °C - -0.6 °C 35% 1012.5 hPa 16.1 km Variable 11.1 km/h / 3.1 m/s - N/A   Clear
1:53 PM 15.6 °C - -0.6 °C 33% 1011.8 hPa 16.1 km Calm Calm - N/A   Clear
2:53 PM 16.7 °C - 0.0 °C 32% 1011.3 hPa 16.1 km Calm Calm - N/A   Clear
3:53 PM 15.0 °C - 1.7 °C 41% 1011.6 hPa 16.1 km North 9.3 km/h / 2.6 m/s - N/A   Clear
4:53 PM 11.1 °C - 1.1 °C 50% 1012.1 hPa 16.1 km North 11.1 km/h / 3.1 m/s - N/A   Clear
5:53 PM 10.6 °C - 0.6 °C 50% 1012.7 hPa 16.1 km NNE 9.3 km/h / 2.6 m/s - N/A   Clear
6:53 PM 10.0 °C - 0.0 °C 50% 1013.6 hPa 16.1 km NE 5.6 km/h / 1.5 m/s - N/A   Clear
7:53 PM 7.2 °C 6.4 °C 0.0 °C 60% 1014.0 hPa 16.1 km ENE 5.6 km/h / 1.5 m/s - N/A   Clear
8:53 PM 7.2 °C 5.9 °C 0.0 °C 60% 1014.2 hPa 16.1 km NE 7.4 km/h / 2.1 m/s - N/A   Clear
9:53 PM 6.7 °C 5.3 °C -0.6 °C 60% 1014.3 hPa 16.1 km ENE 7.4 km/h / 2.1 m/s - N/A   Clear
10:53 PM 6.1 °C 4.6 °C -0.6 °C 62% 1014.4 hPa 16.1 km ENE 7.4 km/h / 2.1 m/s - N/A   Clear
11:53 PM 4.4 °C 2.1 °C -0.6 °C 70% 1014.8 hPa 16.1 km NE 9.3 km/h / 2.6 m/s - N/A   Clear